Miscellaneous Local Product
Issued by NWS North Platte, NE

Home | Current Version | Previous Version | Text Only | Print | Product List | Glossary On
Versions: 1 2 3 4 5 6 7 8 9 10 11 12 13 14 15 16 17 18 19 20 21 22 23 24 25 26 27 28 29 30 31 32 33 34 35 36 37 38 39 40 41 42 43 44 45 46 47 48 49 50
820
AXUS43 KLBF 261510
MISLBF


WESTERN AND NORTH CENTRAL NEBRASKA HOURLY WEATHER ROUNDUP
NATIONAL WEATHER SERVICE NORTH PLATTE NE
1000 AM CDT TUE JUL 26 2016

NOTE: "FAIR" INDICATES FEW OR NO CLOUDS BELOW 12,000 FEET WITH NO
SIGNIFICANT WEATHER AND/OR OBSTRUCTIONS TO VISIBILITY.

NOTE: STATIONS NOT REPORTING VARIABLES SUCH AS SKY/WEATHER OR
PRESSURE ARE PROVIDED BY RAWS AND APRS NETWORKS AND ARE NOT UNDER
NATIONAL WEATHER SERVICE QUALITY CONTROL.

...OBSERVATIONS IN AND NEAR THE EASTERN PANHANDLE OF NEBRASKA...

CITY           SKY/WX    TMP DP  RH WIND       PRES   REMARKS
PINE RIDGE     PTSUNNY   73  65  75 NW12      30.09R
CHADRON        CLOUDY    76  61  59 N6        30.08R
ALLIANCE       SUNNY     75  64  68 S15       30.08R
SIDNEY         SUNNY     76  63  64 S16       30.12S
CRESCENT LAKE    N/A     74  65  74 S9G17       N/A
$$

...OBSERVATIONS IN NORTHERN NEBRASKA AND FAR SOUTHERN SOUTH DAKOTA...

CITY           SKY/WX    TMP DP  RH WIND       PRES   REMARKS
WINNER         FAIR      84  63  49 SW18G24   30.02S
VALENTINE      SUNNY     80  63  55 SW22      30.05F
THEDFORD       SUNNY     77  66  68 S16       30.09S
AINSWORTH      SUNNY     78  67  69 S15       30.07F
O`NEILL        SUNNY     79  61  54 S13       30.08R
ORD            SUNNY     75  65  70 S15       30.07F
BROKEN BOW     SUNNY     74  68  81 S13G23    30.10R
VALENTINE NWR    N/A     76  65  68 S14         N/A
BUTTE            N/A     78  64  61 S9G17       N/A
HALSEY           N/A     74  65  74 S9G16       N/A
EWING            N/A     77  68  73 S7          N/A
$$

...OBSERVATIONS IN SOUTHWEST NEBRASKA AND FAR NORTHEAST COLORADO...

CITY           SKY/WX    TMP DP  RH WIND       PRES   REMARKS
WRAY           FAIR      77  64  65 S14G21    30.12S
HOLYOKE        FAIR      73  64  73 W14       30.10F
IMPERIAL       PTSUNNY   74  66  76 S16       30.11F
OGALLALA       MOSUNNY   75  65  71 S12       30.09F
NORTH PLATTE   SUNNY     76  65  68 S9        30.09S
MCCOOK         CLOUDY    74  66  76 SE12      30.11F
LEXINGTON      PTSUNNY   73  67  79 S10       30.11S
STAPLETON        N/A     75  68  80 CALM        N/A
GOTHENBURG       N/A     71  64  79 S9          N/A
CALLAWAY         N/A     69  67  95 S12         N/A
$$

...OBSERVATIONS IN CENTRAL LINCOLN COUNTY AREA...

CITY           SKY/WX    TMP DP  RH WIND       PRES   REMARKS
N.P. AIRPORT   SUNNY     76  65  68 S9        30.09S
N.P. DOWNTOWN    N/A     77  66  69 S5G12       N/A
N.P. HILLCREST   N/A     76  67  73 S8          N/A
$$

...SOME OBSERVATIONS FROM AROUND THE REGION...

CITY           SKY/WX    TMP DP  RH WIND       PRES   REMARKS
DENVER         PTSUNNY   77  52  41 SW7       30.17R
LARAMIE        SUNNY     73  38  27 S6        30.31S
CHEYENNE       CLOUDY    79  42  26 SW7       30.20S
SCOTTSBLUFF    CLOUDY    74  58  57 SE9       30.07R
RAPID CITY     CLOUDY    69  57  65 MISG      30.06R
BISMARCK       PTSUNNY   76  67  73 E12       29.97S
PIERRE         SUNNY     85  66  53 SW12      29.98R
SIOUX FALLS    MOSUNNY   78  65  63 SW13      30.07R
OMAHA          MOSUNNY   80  65  59 S8        30.08F
GRAND ISLAND   SUNNY     77  64  64 S9        30.11S
KANSAS CITY    MOSUNNY   80  68  66 E9        30.08S
WICHITA        PTSUNNY   81  73  76 NE10      30.05S
OKLAHOMA CITY  CLOUDY    77  72  84 S10       30.04R
DALLAS         MOSUNNY   87  71  58 NE6       29.98R HX  93
AMARILLO       SUNNY     81  61  50 NW8       30.14F
DODGE CITY     CLOUDY    71  69  93 CALM      30.11F FOG
HAYS           CLOUDY    72  63  73 SW6       30.11S
GOODLAND       CLOUDY    72  66  81 S16       30.13F
$$




USA.gov is the U.S. government's official web portal to all federal, state and local government web resources and services.